TimeCST,TemperatureF,Dew PointF,Humidity,Sea Level PressureIn,VisibilityMPH,Wind Direction,Wind SpeedMPH,Gust SpeedMPH,PrecipitationIn,Events,Conditions,WindDirDegrees,DateUTC
12:15 AM,-4.0,-10.3,74,30.60,10.0,West,9.2,-,N/A,,Clear,270,2013-12-07 06:15:00
12:35 AM,-4.2,-11.2,72,30.60,10.0,West,10.4,-,N/A,,Clear,280,2013-12-07 06:35:00
12:55 AM,-4.9,-11.4,74,30.60,10.0,West,8.1,-,N/A,,Clear,280,2013-12-07 06:55:00
1:15 AM,-5.1,-12.1,72,30.60,10.0,West,8.1,-,N/A,,Clear,270,2013-12-07 07:15:00
1:35 AM,-5.3,-12.1,72,30.60,10.0,West,9.2,-,N/A,,Clear,270,2013-12-07 07:35:00
1:55 AM,-5.8,-12.5,73,30.61,10.0,West,6.9,-,N/A,,Clear,270,2013-12-07 07:55:00
2:15 AM,-6.0,-13.0,72,30.62,10.0,West,6.9,-,N/A,,Clear,260,2013-12-07 08:15:00
2:35 AM,-6.3,-13.0,73,30.62,10.0,West,8.1,-,N/A,,Clear,270,2013-12-07 08:35:00
2:55 AM,-6.7,-13.7,72,30.63,10.0,West,8.1,-,N/A,,Clear,270,2013-12-07 08:55:00
3:15 AM,-6.9,-14.1,71,30.63,10.0,West,6.9,-,N/A,,Clear,270,2013-12-07 09:15:00
3:35 AM,-7.2,-14.3,71,30.63,10.0,West,6.9,-,N/A,,Clear,270,2013-12-07 09:35:00
3:55 AM,-7.6,-14.8,71,30.63,10.0,West,5.8,-,N/A,,Clear,270,2013-12-07 09:55:00
4:15 AM,-7.6,-14.4,72,30.63,10.0,West,6.9,-,N/A,,Clear,270,2013-12-07 10:15:00
4:35 AM,-7.6,-14.6,71,30.64,10.0,West,10.4,-,N/A,,Clear,270,2013-12-07 10:35:00
4:55 AM,-8.0,-14.8,72,30.64,10.0,West,4.6,-,N/A,,Clear,260,2013-12-07 10:55:00
5:15 AM,-8.5,-14.8,74,30.63,10.0,West,5.8,-,N/A,,Clear,280,2013-12-07 11:15:00
5:35 AM,-8.5,-14.8,74,30.64,10.0,West,6.9,-,N/A,,Clear,270,2013-12-07 11:35:00
5:55 AM,-8.5,-14.8,74,30.65,10.0,West,5.8,-,N/A,,Clear,280,2013-12-07 11:55:00
6:15 AM,-8.5,-14.6,75,30.64,10.0,Calm,Calm,-,N/A,,Clear,0,2013-12-07 12:15:00
6:35 AM,-8.7,-14.8,75,30.65,10.0,WSW,4.6,-,N/A,,Clear,250,2013-12-07 12:35:00
6:55 AM,-8.5,-14.8,74,30.66,10.0,WSW,6.9,-,N/A,,Clear,240,2013-12-07 12:55:00
7:15 AM,-8.5,-14.8,74,30.66,10.0,WSW,6.9,-,N/A,,Clear,250,2013-12-07 13:15:00
7:35 AM,-8.5,-14.8,74,30.65,10.0,West,4.6,-,N/A,,Clear,260,2013-12-07 13:35:00
7:55 AM,-8.5,-14.8,74,30.65,10.0,WSW,5.8,-,N/A,,Clear,250,2013-12-07 13:55:00
8:15 AM,-7.8,-14.4,73,30.66,10.0,WSW,6.9,-,N/A,,Clear,250,2013-12-07 14:15:00
8:35 AM,-7.6,-14.3,73,30.66,10.0,West,6.9,-,N/A,,Clear,260,2013-12-07 14:35:00
8:55 AM,-7.1,-14.4,70,30.67,10.0,West,5.8,-,N/A,,Clear,260,2013-12-07 14:55:00
9:15 AM,-6.7,-14.3,70,30.68,10.0,WSW,9.2,-,N/A,,Clear,250,2013-12-07 15:15:00
9:35 AM,-5.8,-13.9,68,30.68,10.0,West,6.9,-,N/A,,Clear,260,2013-12-07 15:35:00
9:55 AM,-5.3,-13.5,67,30.69,10.0,West,5.8,-,N/A,,Clear,270,2013-12-07 15:55:00
10:15 AM,-4.2,-13.4,65,30.70,10.0,West,6.9,-,N/A,,Clear,260,2013-12-07 16:15:00
10:35 AM,-3.3,-12.8,64,30.70,10.0,WSW,6.9,-,N/A,,Clear,250,2013-12-07 16:35:00
10:55 AM,-2.6,-12.3,63,30.69,10.0,WSW,5.8,-,N/A,,Clear,240,2013-12-07 16:55:00
11:15 AM,-1.7,-11.6,63,30.68,10.0,West,6.9,-,N/A,,Clear,260,2013-12-07 17:15:00
11:35 AM,-0.6,-10.8,62,30.68,10.0,WSW,6.9,-,N/A,,Clear,240,2013-12-07 17:35:00
11:55 AM,0.1,-10.1,62,30.67,10.0,SW,5.8,-,N/A,,Clear,220,2013-12-07 17:55:00
12:15 PM,0.9,-9.4,62,30.66,10.0,SW,6.9,-,N/A,,Clear,230,2013-12-07 18:15:00
12:35 PM,1.4,-9.4,61,30.65,10.0,WSW,4.6,-,N/A,,Clear,240,2013-12-07 18:35:00
12:55 PM,2.3,-8.5,61,30.65,10.0,WSW,5.8,-,N/A,,Clear,240,2013-12-07 18:55:00
1:15 PM,2.8,-8.5,59,30.63,10.0,West,5.8,-,N/A,,Clear,260,2013-12-07 19:15:00
1:35 PM,3.2,-8.1,59,30.63,10.0,WSW,5.8,-,N/A,,Clear,240,2013-12-07 19:35:00
1:55 PM,3.7,-7.6,59,30.63,10.0,SW,4.6,-,N/A,,Clear,230,2013-12-07 19:55:00
2:15 PM,3.7,-6.7,62,30.63,10.0,SW,8.1,-,N/A,,Clear,230,2013-12-07 20:15:00
2:35 PM,3.7,-7.2,60,30.63,10.0,SW,8.1,-,N/A,,Clear,230,2013-12-07 20:35:00
2:55 PM,3.6,-7.6,60,30.63,10.0,WSW,8.1,-,N/A,,Clear,250,2013-12-07 20:55:00
3:15 PM,3.4,-7.1,62,30.63,10.0,SW,6.9,-,N/A,,Clear,230,2013-12-07 21:15:00
3:35 PM,3.2,-6.7,63,30.63,10.0,SW,4.6,-,N/A,,Clear,230,2013-12-07 21:35:00
3:55 PM,3.0,-6.7,64,30.63,10.0,SW,9.2,-,N/A,,Clear,220,2013-12-07 21:55:00
4:15 PM,2.3,-6.9,66,30.62,10.0,SSW,5.8,-,N/A,,Clear,210,2013-12-07 22:15:00
4:35 PM,1.4,-8.0,65,30.62,10.0,WSW,5.8,-,N/A,,Clear,240,2013-12-07 22:35:00
4:55 PM,1.0,-7.8,66,30.61,10.0,SW,4.6,-,N/A,,Clear,220,2013-12-07 22:55:00
5:15 PM,1.0,-7.8,66,30.61,10.0,WSW,3.5,-,N/A,,Clear,240,2013-12-07 23:15:00
5:35 PM,0.9,-8.1,66,30.61,10.0,WSW,5.8,-,N/A,,Clear,250,2013-12-07 23:35:00
5:55 PM,0.5,-7.8,68,30.61,10.0,WSW,4.6,-,N/A,,Clear,240,2013-12-07 23:55:00
6:15 PM,-0.0,-7.8,70,30.60,10.0,SW,3.5,-,N/A,,Clear,230,2013-12-08 00:15:00
6:35 PM,-0.4,-8.0,70,30.59,10.0,Calm,Calm,-,N/A,,Clear,0,2013-12-08 00:35:00
6:55 PM,-0.8,-8.1,71,30.58,10.0,Calm,Calm,-,N/A,,Clear,0,2013-12-08 00:55:00
7:15 PM,-1.5,-8.1,73,30.58,10.0,Calm,Calm,-,N/A,,Clear,0,2013-12-08 01:15:00
7:35 PM,-1.3,-8.1,73,30.58,10.0,Calm,Calm,-,N/A,,Clear,0,2013-12-08 01:35:00
7:55 PM,-1.3,-8.0,73,30.58,10.0,Calm,Calm,-,N/A,,Clear,0,2013-12-08 01:55:00
8:15 PM,-0.9,-8.5,70,30.58,10.0,WSW,3.5,-,N/A,,Clear,240,2013-12-08 02:15:00
8:35 PM,-1.5,-8.0,74,30.58,10.0,SW,4.6,-,N/A,,Clear,220,2013-12-08 02:35:00
8:55 PM,-1.7,-8.3,73,30.58,10.0,WSW,3.5,-,N/A,,Clear,240,2013-12-08 02:55:00
9:15 PM,-1.7,-8.1,74,30.58,10.0,WSW,3.5,-,N/A,,Clear,250,2013-12-08 03:15:00
9:35 PM,-2.0,-8.0,76,30.57,10.0,Calm,Calm,-,N/A,,Clear,0,2013-12-08 03:35:00
9:55 PM,-1.7,-8.0,75,30.58,10.0,West,3.5,-,N/A,,Clear,280,2013-12-08 03:55:00
10:15 PM,-2.6,-9.4,73,30.57,10.0,Calm,Calm,-,N/A,,Clear,0,2013-12-08 04:15:00
10:35 PM,-2.9,-8.9,76,30.57,10.0,Calm,Calm,-,N/A,,Clear,0,2013-12-08 04:35:00
10:55 PM,-3.1,-8.5,78,30.56,10.0,Calm,Calm,-,N/A,,Clear,0,2013-12-08 04:55:00
11:15 PM,-4.0,-9.4,78,30.57,10.0,Calm,Calm,-,N/A,,Clear,0,2013-12-08 05:15:00
11:35 PM,-3.1,-8.5,78,30.57,10.0,Calm,Calm,-,N/A,,Clear,0,2013-12-08 05:35:00
11:55 PM,-1.7,-8.5,73,30.57,10.0,Calm,Calm,-,N/A,,Clear,0,2013-12-08 05:55:00